Weather History for Tuscaloosa, AL

Change the Weather History Date:

Sunday, November 10, 2013

  Actual Average Record
Temperature  
Mean Temperature 61 °F 57 °F  
Max Temperature 74 °F 69 °F 83 °F (2002)
Min Temperature 47 °F 44 °F 25 °F (1991)
Degree Days  
Heating Degree Days 4 9  
Month to date heating degree days 84 78  
Since 1 July heating degree days 156 195  
Growing Degree Days 12 (Base 50)    
Moisture  
Dew Point 45 °F    
Average Humidity 58    
Maximum Humidity 89    
Minimum Humidity 27    
Precipitation  
Precipitation 0.00 in 0.15 in 2.89 in (2009)
Month to date precipitation 0.35 1.33  
Year to date precipitation 41.46 44.23  
Sea Level Pressure  
Sea Level Pressure 30.28 in    
Wind  
Wind Speed 2 mph (NNE)    
Max Wind Speed 10 mph    
Max Gust Speed 14 mph    
Visibility 10 miles    
Events      
T = Trace of Precipitation, MM = Missing Value Source: NWS Daily Summary

Daily Weather History Graph

Daily Weather History Graph

Search for Another Location

Airport:

Trip Planner

Search our weather history database for the weather conditions in past years. The results will help you decide how hot, cold, wet, or windy it might be!

Date:

Astronomy

Nov. 10, 2013 Rise Set
Actual Time 6:17 AM CST 4:51 PM CST
Civil Twilight 5:51 AM CST 5:17 PM CST
Nautical Twilight 5:21 AM CST 5:47 PM CST
Astronomical Twilight 4:52 AM CST 6:16 PM CST
Moon 12:36 PM CST (11/10) No Moon Set
Length of Visible Light 11h 26m
Length of Day
10h 34m
First Quarter, 56% of the Moon is Illuminated
Nov 10
First Quarter
Nov 17
Full
Nov 25
Last Quarter
Dec 2
New
Dec 9
First Quarter

Hourly Weather History & Observations

Time (CST) Temp. Dew Point Humidity Pressure Visibility Wind Dir Wind Speed Gust Speed Precip Events Conditions
12:53 AM 54.0 °F 50.0 °F 86% 30.26 in 10.0 mi Calm Calm - N/A   Mostly Cloudy
1:53 AM 53.1 °F 50.0 °F 89% 30.27 in 9.0 mi Calm Calm - N/A   Overcast
2:53 AM 53.1 °F 50.0 °F 89% 30.29 in 10.0 mi Calm Calm - N/A   Overcast
3:53 AM 53.1 °F 50.0 °F 89% 30.28 in 10.0 mi Calm Calm - N/A   Overcast
4:53 AM 54.0 °F 48.9 °F 83% 30.29 in 10.0 mi Calm Calm - N/A   Overcast
5:53 AM 53.1 °F 48.9 °F 86% 30.30 in 10.0 mi Calm Calm - N/A   Overcast
6:53 AM 54.0 °F 50.0 °F 86% 30.31 in 9.0 mi Calm Calm - N/A   Overcast
7:53 AM 57.0 °F 48.9 °F 74% 30.32 in 10.0 mi Calm Calm - N/A   Partly Cloudy
8:53 AM 60.1 °F 46.9 °F 62% 30.33 in 10.0 mi ENE 3.5 mph - N/A   Clear
9:53 AM 64.0 °F 42.1 °F 45% 30.32 in 10.0 mi NE 5.8 mph - N/A   Clear
10:53 AM 66.0 °F 42.1 °F 42% 30.31 in 10.0 mi Calm Calm - N/A   Mostly Cloudy
11:53 AM 69.1 °F 39.0 °F 33% 30.28 in 10.0 mi NE 3.5 mph - N/A   Clear
12:53 PM 72.0 °F 37.0 °F 28% 30.25 in 10.0 mi Variable 3.5 mph - N/A   Clear
1:53 PM 73.0 °F 37.9 °F 28% 30.24 in 10.0 mi NNW 9.2 mph - N/A   Clear
2:53 PM 72.0 °F 39.0 °F 30% 30.23 in 10.0 mi Calm Calm - N/A   Clear
3:53 PM 73.9 °F 39.0 °F 28% 30.24 in 10.0 mi NNE 5.8 mph - N/A   Mostly Cloudy
4:53 PM 68.0 °F 41.0 °F 37% 30.24 in 10.0 mi North 4.6 mph - N/A   Clear
5:53 PM 61.0 °F 46.9 °F 60% 30.26 in 10.0 mi Calm Calm - N/A   Clear
6:53 PM 57.9 °F 46.9 °F 67% 30.26 in 10.0 mi Calm Calm - N/A   Clear
7:53 PM 54.0 °F 46.0 °F 75% 30.26 in 10.0 mi Calm Calm - N/A   Clear
8:53 PM 53.1 °F 46.9 °F 80% 30.27 in 10.0 mi Calm Calm - N/A   Clear
9:53 PM 52.0 °F 46.9 °F 83% 30.27 in 10.0 mi Calm Calm - N/A   Clear
10:53 PM 50.0 °F 46.0 °F 86% 30.26 in 10.0 mi Calm Calm - N/A   Clear
11:53 PM 46.9 °F 44.1 °F 90% 30.26 in 10.0 mi Calm Calm - N/A   Scattered Clouds